Home > Time Zones > World Clock > Weather > Serbia > Niš > Past weeks

Flag Weather past 2 weeks in Niš, Serbia

Now
48 °F

Broken clouds.


Feels Like: 42 °F
Forecast: 35 / 52 °F
Wind: 15 mph from Northwest

Location: Nis Airport

Current Time: Oct 31, 2014 at 9:30:11 AM

Latest Report: Oct 31, 2014 at 9:00 AM


Visibility: 5 mi

Pressure: 30.30 "Hg

Humidity: 71%

Dew point: 39 °F

Location of NišLocation

Historic Weather in Niš — Graph

°F

Niš temperature yesterday

Maximum temperature yesterday: 48 °F (at 1:30 PM)
Minimum temperature yesterday: 37 °F (at 3:30 AM)
Average temperature yesterday: 44 °F

Past Weeks' High & Low Weather Summary

 TemperatureHumidityPressure
High77 °F (Oct 17, 2:00 PM)100% (Oct 16, 11:00 AM)30.42 "Hg (Oct 16, 11:00 AM)
Low28 °F (Oct 28, 3:00 AM)40% (Oct 19, 3:30 PM)29.56 "Hg (Oct 22, 12:30 PM)
Average49 °F79%30.10 "Hg
* Reported Oct 16 9:00 AM — Oct 31 8:30 AM, Niš, Weather by CustomWeather, © 2014

Note: Actual official high and low records may vary slightly from our data, if they occured in-between our weather recording intervals... More about our weather records

Advertising

Niš weather history for previous 24 hours

 ConditionsComfort  
Time TempWeatherWind HumidityBarometerVisibility
8:30 AM
Oct 31
46 °FBroken clouds.14 mph76%30.30 "Hg5 mi
8:00 AM46 °FBroken clouds.12 mph76%30.30 "Hg5 mi
7:30 AM46 °FBroken clouds.12 mph76%30.30 "Hg5 mi
7:00 AM46 °FBroken clouds.12 mph76%30.27 "Hg5 mi
6:30 AM46 °FBroken clouds.13 mph76%30.27 "Hg5 mi
6:00 AM46 °FPartly cloudy.10 mph76%30.27 "Hg5 mi
5:30 AM46 °FPartly cloudy.7 mph76%30.27 "Hg5 mi
5:00 AM46 °FPartly cloudy.10 mph76%30.27 "Hg5 mi
4:30 AM46 °FPartly cloudy.12 mph82%30.27 "Hg4 mi
4:00 AM46 °FPartly cloudy.13 mph82%30.27 "Hg4 mi
3:30 AM46 °FPartly cloudy.10 mph82%30.27 "Hg4 mi
3:00 AM46 °FPartly cloudy.10 mph82%30.27 "Hg4 mi
2:30 AM46 °FPartly cloudy.10 mph82%30.27 "Hg4 mi
2:00 AM46 °FPartly cloudy.10 mph82%30.27 "Hg5 mi
1:30 AM46 °FPartly cloudy.12 mph82%30.27 "Hg5 mi
1:00 AM46 °FPartly cloudy.8 mph82%30.27 "Hg5 mi
12:30 AM46 °FPartly cloudy.8 mph82%30.27 "Hg5 mi
12:00 AM46 °FPartly cloudy.7 mph82%30.27 "Hg5 mi
11:30 PM
Oct 30
46 °FPartly cloudy.6 mph82%30.27 "Hg5 mi
11:00 PM46 °FPartly cloudy.6 mph76%30.27 "Hg5 mi
10:30 PM46 °FPartly cloudy.8 mph76%30.27 "HgN/A
10:00 PM46 °FPartly cloudy.10 mph76%30.27 "HgN/A
9:30 PM46 °FPartly cloudy.9 mph76%30.27 "HgN/A
9:00 PM46 °FPartly cloudy.10 mph76%30.27 "HgN/A
8:30 PM46 °FPartly cloudy.10 mph82%30.27 "HgN/A
8:00 PM46 °FPartly cloudy.9 mph76%30.27 "HgN/A
7:30 PM46 °FPartly cloudy.8 mph76%30.24 "HgN/A
7:00 PM46 °FPartly cloudy.9 mph76%30.24 "HgN/A
6:30 PM46 °FPartly cloudy.9 mph76%30.24 "HgN/A
6:00 PM46 °FPartly cloudy.10 mph76%30.24 "HgN/A
5:30 PM46 °FPartly cloudy.9 mph76%30.24 "HgN/A
5:00 PM46 °FPartly cloudy.10 mph82%30.24 "HgN/A
4:30 PM48 °FPartly cloudy.10 mph76%30.24 "HgN/A
4:00 PM48 °FBroken clouds.10 mph76%30.24 "HgN/A
3:30 PM48 °FBroken clouds.10 mph71%30.21 "HgN/A
3:00 PM48 °FBroken clouds.10 mph71%30.21 "HgN/A
2:30 PM48 °FBroken clouds.10 mph71%30.21 "HgN/A
2:00 PM48 °FBroken clouds.10 mph71%30.21 "HgN/A
1:30 PM48 °FBroken clouds.12 mph71%30.21 "HgN/A
1:00 PM46 °FBroken clouds.12 mph76%30.21 "HgN/A
12:30 PM46 °FBroken clouds.8 mph76%30.21 "HgN/A
12:00 PM46 °FBroken clouds.8 mph76%30.24 "HgN/A
11:30 AM45 °FBroken clouds.8 mph81%30.24 "HgN/A
11:00 AM45 °FBroken clouds.8 mph81%30.24 "HgN/A
10:30 AM45 °FBroken clouds.9 mph81%30.24 "HgN/A
10:00 AM43 °FBroken clouds.6 mph81%30.24 "HgN/A
9:30 AM43 °FBroken clouds.8 mph81%30.24 "HgN/A
9:00 AM43 °FBroken clouds.9 mph81%30.24 "HgN/A
Weather by CustomWeather, © 2014

See weather overviewHow to use our weather pages